Date,TemperatureHighF,TemperatureAvgF,TemperatureLowF,DewpointHighF,DewpointAvgF,DewpointLowF,HumidityHigh,HumidityAvg,HumidityLow,PressureMaxIn,PressureMinIn,WindSpeedMaxMPH,WindSpeedAvgMPH,GustSpeedMaxMPH,PrecipitationSumIn
2013-5-1,66.0,60.9,55.9,58.5,55.8,54.0,95,84,71,30.17,30.06,17,6,21,0.00
2013-5-2,59.6,57.9,56.1,58.2,56.4,55.2,98,95,89,30.18,30.11,15,6,17,0.06
2013-5-3,63.6,58.5,56.0,57.3,55.0,52.3,97,89,75,30.12,29.98,17,6,23,0.04
2013-5-4,59.1,53.9,50.4,54.3,49.5,43.5,97,85,68,29.98,29.85,17,7,23,0.68
2013-5-5,53.8,51.9,49.5,53.0,51.2,48.9,99,97,95,29.88,29.73,16,6,23,3.19
2013-5-6,65.2,57.0,48.7,56.3,50.9,46.5,99,82,54,29.83,29.70,10,2,15,0.01
2013-5-7,71.7,56.7,44.3,55.0,49.8,43.8,99,80,46,29.87,29.77,11,1,15,0.14
2013-5-8,76.0,63.1,49.6,60.1,55.0,49.3,99,77,49,29.94,29.82,13,2,18,0.00
2013-5-9,82.5,67.5,52.0,61.7,56.4,51.4,98,71,40,29.99,29.90,12,1,14,0.00
2013-5-10,81.5,68.9,56.4,66.2,61.3,55.8,99,79,49,29.99,29.86,10,1,17,0.01
2013-5-11,76.6,68.7,59.7,66.3,62.0,58.0,95,80,62,29.87,29.74,11,2,18,0.05
2013-5-12,75.5,64.7,51.2,60.9,46.2,27.1,93,56,17,29.96,29.77,10,2,15,0.00
2013-5-13,71.1,57.2,42.2,43.8,36.6,30.3,85,50,24,30.10,29.96,9,1,13,0.00
2013-5-14,74.5,59.6,40.9,52.6,44.0,37.2,96,60,35,30.18,30.00,12,2,15,0.00
2013-5-15,88.0,73.5,56.8,65.0,58.1,52.5,90,61,41,30.00,29.85,10,2,16,0.00
2013-5-16,81.7,72.2,59.7,63.1,59.7,54.5,91,66,47,29.93,29.86,9,2,13,0.00
2013-5-17,84.6,71.9,58.8,66.2,61.4,56.9,95,72,42,29.99,29.91,11,1,14,0.00
2013-5-18,73.8,68.6,63.2,68.8,65.7,61.3,97,91,81,30.04,29.94,7,1,11,0.26
2013-5-19,77.0,69.9,65.4,68.4,66.3,64.4,98,89,72,30.02,29.91,9,1,9,0.04
2013-5-20,84.0,71.9,62.7,69.6,66.4,62.4,99,85,58,30.02,29.91,7,1,11,0.01
2013-5-21,88.9,75.1,64.8,72.1,67.6,64.2,99,80,48,29.94,29.83,13,1,17,0.00
2013-5-22,84.9,72.5,62.8,72.4,66.5,61.1,98,83,59,29.91,29.76,14,1,16,0.58
2013-5-23,83.8,71.5,62.5,69.4,63.4,56.5,99,78,50,29.87,29.73,14,2,17,0.28
2013-5-24,73.4,66.9,56.0,58.9,46.8,30.8,95,53,21,30.12,29.81,17,4,23,0.00
2013-5-25,76.7,64.4,51.4,53.5,44.3,37.7,80,50,30,30.21,30.08,11,2,13,0.00
2013-5-26,76.6,64.0,54.1,56.1,49.3,44.1,88,61,37,30.20,30.07,10,1,10,0.00
2013-5-27,83.7,69.6,55.2,62.8,57.4,52.4,94,68,42,30.16,30.03,7,1,12,0.00
2013-5-28,83.8,72.5,60.8,65.6,62.8,59.4,96,73,50,30.14,30.03,11,1,12,0.00
2013-5-29,84.4,72.9,59.2,65.4,62.5,58.3,97,72,46,30.15,30.06,7,1,12,0.00
2013-5-30,83.8,73.4,62.3,66.7,63.5,60.4,96,73,48,30.18,30.06,7,1,11,0.00
2013-5-31,86.2,75.7,63.8,69.4,65.8,62.6,97,73,48,30.14,29.99,10,1,12,0.00